Date String (YYYY-MM-DD hh:mm:ss) UTC,Instrument flags,Ambient pressure (hPa),Sample flow (lpm),Bypass flow (lpm),Sample temperature (°C),Ambient temperature (°C),ASC tube jacket temperature (°C),LED temperature (°C),Box temperature (°C),Sample RH (%),Span deviation,Mass concentration (μg/m³),Mass concentration (μg/m³),Mass concentration (μg/m³)
DateTimeUTC,F1_M11,P_M11,Q1_M11,Q2_M11,T1_M11,T2_M11,T3_M11,T4_M11,T5_M11,U1_M11,ZSPAN_M11,X0_M11,X2_M11,X1_M11
2022-07-25 21:00:00,,0826.7,5.00,0.00,29.5,27.5,00.0,38.2,31.3,31.1,0000.0,0012.51,0007.80,0006.97
2022-07-25 21:01:00,,0826.7,5.00,0.00,29.5,27.7,00.0,38.2,31.3,30.4,0000.0,0012.62,0007.86,0007.01
2022-07-25 21:02:00,,0826.7,5.00,0.00,29.6,27.9,00.0,38.2,31.4,30.2,0000.0,0013.44,0007.87,0007.05
2022-07-25 21:03:00,,0826.7,5.00,0.00,29.6,28.1,00.0,38.3,31.5,30.4,0000.0,0014.13,0007.92,0007.09
2022-07-25 21:04:00,,0826.7,5.00,0.00,29.6,28.2,00.0,38.3,31.5,30.2,0000.0,0014.14,0007.95,0007.13
2022-07-25 21:05:00,,0826.6,4.99,0.00,29.6,27.6,00.0,38.2,31.4,31.0,0000.0,0014.21,0007.98,0007.15
2022-07-25 21:06:00,,0826.7,5.01,0.00,29.6,27.2,00.0,38.2,31.3,31.1,0000.0,0014.32,0008.04,0007.18
2022-07-25 21:07:00,,0826.7,4.99,0.00,29.5,27.1,00.0,38.2,31.2,30.7,0000.0,0014.78,0008.09,0007.22
2022-07-25 21:08:00,,0826.6,5.00,0.00,29.4,27.2,00.0,38.2,31.1,30.7,0000.0,0015.89,0008.13,0007.26
2022-07-25 21:09:00,,0826.6,5.00,0.00,29.4,27.3,00.0,38.1,31.2,31.3,0000.0,0016.04,0008.09,0007.25
2022-07-25 21:10:00,,0826.6,5.00,0.00,29.4,27.5,00.0,38.1,31.2,31.3,0000.0,0016.03,0008.09,0007.23
2022-07-25 21:11:00,,0826.6,5.00,0.00,29.5,27.7,00.0,38.1,31.3,31.0,0000.0,0016.45,0008.11,0007.21
2022-07-25 21:12:00,,0826.6,5.01,0.00,29.5,27.9,00.0,38.2,31.4,30.3,0000.0,0016.36,0008.09,0007.19
2022-07-25 21:13:00,,0826.6,4.99,0.00,29.5,28.1,00.0,38.2,31.4,29.8,0000.0,0015.62,0008.07,0007.16
2022-07-25 21:14:00,,0826.5,5.01,0.00,29.5,27.9,00.0,38.2,31.4,30.0,0000.0,0014.92,0008.01,0007.13
2022-07-25 21:15:00,,0826.5,4.99,0.00,29.5,27.3,00.0,38.1,31.3,30.5,0000.0,0014.83,0007.98,0007.11
2022-07-25 21:16:00,,0826.5,5.01,0.00,29.4,27.1,00.0,38.1,31.2,31.4,0000.0,0014.85,0007.97,0007.10
2022-07-25 21:17:00,,0826.5,5.00,0.00,29.4,27.1,00.0,38.1,31.1,31.9,0000.0,0014.73,0007.89,0007.06
2022-07-25 21:18:00,,0826.5,5.00,0.00,29.4,27.2,00.0,38.1,31.1,32.0,0000.0,0014.39,0007.85,0007.03
2022-07-25 21:19:00,,0826.5,5.00,0.00,29.4,27.4,00.0,38.1,31.1,32.1,0000.0,0013.18,0007.81,0006.99
2022-07-25 21:20:00,,0826.5,5.01,0.00,29.4,27.6,00.0,38.1,31.2,30.8,0000.0,0012.72,0007.79,0006.93
2022-07-25 21:21:00,,0826.5,5.00,0.00,29.4,27.8,00.0,38.1,31.3,31.7,0000.0,0012.47,0007.72,0006.89
2022-07-25 21:22:00,,0826.5,5.01,0.00,29.4,28.0,00.0,38.1,31.4,31.3,0000.0,0011.95,0007.62,0006.82
2022-07-25 21:23:00,,0826.5,4.98,0.00,29.5,28.2,00.0,38.1,31.4,29.7,0000.0,0012.02,0007.54,0006.75
2022-07-25 21:24:00,,0826.5,5.01,0.00,29.5,28.1,00.0,38.1,31.4,28.5,0000.0,0011.98,0007.49,0006.70
2022-07-25 21:25:00,,0826.5,5.00,0.00,29.5,27.4,00.0,38.1,31.3,28.9,0000.0,0011.98,0007.46,0006.65
2022-07-25 21:26:00,,0826.5,5.00,0.00,29.4,27.1,00.0,38.0,31.2,28.6,0000.0,0012.42,0007.42,0006.60
2022-07-25 21:27:00,,0826.5,5.01,0.00,29.4,27.1,00.0,38.0,31.1,29.1,0000.0,0013.21,0007.35,0006.54
2022-07-25 21:28:00,,0826.5,4.98,0.00,29.3,27.2,00.0,38.0,31.0,29.6,0000.0,0013.25,0007.31,0006.49
2022-07-25 21:29:00,,0826.4,5.00,0.00,29.3,27.4,00.0,38.0,31.1,29.0,0000.0,0013.28,0007.28,0006.45
2022-07-25 21:30:00,,0826.4,5.00,0.00,29.3,27.6,00.0,38.0,31.2,28.7,0000.0,0013.59,0007.24,0006.42
2022-07-25 21:31:00,,0826.4,4.99,0.00,29.4,27.8,00.0,38.1,31.2,28.7,0000.0,0013.81,0007.28,0006.43
2022-07-25 21:32:00,,0826.4,5.00,0.00,29.4,28.0,00.0,38.1,31.3,28.3,0000.0,0013.65,0007.30,0006.44
2022-07-25 21:33:00,,0826.4,4.99,0.00,29.4,28.2,00.0,38.1,31.4,28.1,0000.0,0013.97,0007.34,0006.45
2022-07-25 21:34:00,,0826.4,5.00,0.00,29.5,28.1,00.0,38.1,31.4,28.1,0000.0,0013.99,0007.38,0006.47
2022-07-25 21:35:00,,0826.3,5.00,0.00,29.5,27.5,00.0,38.0,31.3,28.2,0000.0,0013.89,0007.38,0006.47
2022-07-25 21:36:00,,0826.3,5.01,0.00,29.4,27.1,00.0,38.0,31.2,28.1,0000.0,0014.90,0007.38,0006.46
2022-07-25 21:37:00,,0826.2,4.99,0.00,29.4,27.1,00.0,38.0,31.1,28.7,0000.0,0014.94,0007.34,0006.43
2022-07-25 21:38:00,,0826.2,5.00,0.00,29.3,27.2,00.0,38.0,31.0,29.9,0000.0,0013.97,0007.36,0006.41
2022-07-25 21:39:00,,0826.2,5.00,0.00,29.3,27.4,00.0,38.0,31.1,29.6,0000.0,0013.92,0007.39,0006.43
2022-07-25 21:40:00,,0826.2,5.00,0.00,29.3,27.6,00.0,38.0,31.2,29.2,0000.0,0013.97,0007.42,0006.45
2022-07-25 21:41:00,,0826.2,5.00,0.00,29.3,27.8,00.0,38.0,31.2,28.5,0000.0,0013.74,0007.42,0006.47
2022-07-25 21:42:00,,0826.2,4.99,0.00,29.4,28.0,00.0,38.0,31.3,28.8,0000.0,0013.83,0007.41,0006.47
2022-07-25 21:43:00,,0826.2,5.01,0.00,29.4,28.2,00.0,38.1,31.4,29.0,0000.0,0014.06,0007.42,0006.47
2022-07-25 21:44:00,,0826.2,5.00,0.00,29.5,28.2,00.0,38.1,31.4,29.5,0000.0,0013.88,0007.40,0006.48
2022-07-25 21:45:00,,0826.2,5.00,0.00,29.5,27.7,00.0,38.0,31.4,30.1,0000.0,0013.80,0007.35,0006.47
2022-07-25 21:46:00,,0826.2,5.00,0.00,29.4,27.2,00.0,38.0,31.3,30.3,0000.0,0014.75,0007.37,0006.50
2022-07-25 21:47:00,,0826.1,5.01,0.00,29.4,27.2,00.0,38.0,31.2,30.0,0000.0,0014.55,0007.45,0006.55
2022-07-25 21:48:00,,0826.2,4.99,0.00,29.3,27.3,00.0,38.0,31.1,31.1,0000.0,0014.36,0007.53,0006.60
2022-07-25 21:49:00,,0826.2,5.00,0.00,29.3,27.4,00.0,38.0,31.1,29.7,0000.0,0014.91,0007.60,0006.65
2022-07-25 21:50:00,,0826.2,5.00,0.00,29.3,27.6,00.0,38.0,31.2,28.5,0000.0,0015.20,0007.64,0006.69
2022-07-25 21:51:00,,0826.2,5.01,0.00,29.4,27.8,00.0,38.0,31.2,28.7,0000.0,0015.14,0007.64,0006.72
2022-07-25 21:52:00,,0826.2,4.99,0.00,29.4,28.0,00.0,38.1,31.3,28.4,0000.0,0016.23,0007.69,0006.75
2022-07-25 21:53:00,,0826.2,5.01,0.00,29.4,28.1,00.0,38.1,31.4,28.9,0000.0,0017.17,0007.69,0006.77
2022-07-25 21:54:00,,0826.2,4.99,0.00,29.4,27.6,00.0,38.0,31.3,29.2,0000.0,0018.26,0007.70,0006.79
2022-07-25 21:55:00,,0826.1,5.00,0.00,29.4,27.2,00.0,38.0,31.2,28.8,0000.0,0018.29,0007.71,0006.81
2022-07-25 21:56:00,,0826.1,5.00,0.00,29.3,27.1,00.0,38.0,31.1,29.1,0000.0,0019.07,0007.75,0006.84
2022-07-25 21:57:00,,0826.0,5.00,0.00,29.3,27.2,00.0,38.0,31.0,28.1,0000.0,0018.72,0007.80,0006.85
2022-07-25 21:58:00,,0826.1,5.00,0.00,29.3,27.4,00.0,38.0,31.1,29.0,0000.0,0018.48,0007.79,0006.84
2022-07-25 21:59:00,,0826.0,5.00,0.00,29.3,27.6,00.0,38.0,31.1,28.5,0000.0,0018.79,0007.80,0006.84
